Regional Weather Roundup
Issued by NWS

Home | Current Version | Previous Version | Text Only | Print | Product List | Glossary On
Versions: 1 2 3 4 5 6 7 8 9 10 11 12 13 14 15 16 17 18 19 20 21 22 23 24 25 26 27 28 29 30 31 32 33 34 35 36 37 38 39 40 41 42 43 44 45 46 47 48 49 50
000
ASUS43 KMKX 262120
RWRWI

WISCONSIN REGIONAL WEATHER ROUNDUP
NATIONAL WEATHER SERVICE MILWAUKEE/SULLIVAN WI
300 PM CST THU FEB 26 2015

NOTE: "FAIR" INDICATES FEW OR NO CLOUDS BELOW 12,000 FEET WITH NO
SIGNIFICANT WEATHER AND/OR OBSTRUCTIONS TO VISIBILITY.

WIZ001-002-006>008-014>016-023>028-262200-
NORTHWEST WISCONSIN

CITY           SKY/WX    TMP DP  RH WIND       PRES   REMARKS
SUPERIOR ARPT  SUNNY      9  -8  44 NW10      30.41F WCI  -5
ASHLAND        SUNNY      9  -8  46 W7        30.38S WCI  -2
HAYWARD        SUNNY      9 -12  38 NW7       30.34S WCI  -2
SIREN          SUNNY      9 -10  42 NW8       30.40S WCI  -3
CUMBERLAND     SUNNY      9  -9  43 NW8       30.35S WCI  -4
RICE LAKE      SUNNY      9 -10  41 NW6       30.38S WCI   0
CHETEK         SUNNY      8  -9  44 W6G16     30.37S WCI  -2
LADYSMITH      MOSUNNY    9  -5  51 NW10      30.34S WCI  -5
EAU CLAIRE     SUNNY      9  -8  46 N7        30.38S WCI  -2
MENOMONIE      SUNNY     10  -7  45 W13       30.39F WCI  -5
NEW RICHMOND   SUNNY      8  -8  47 NW8       30.41S WCI  -4
OSCEOLA        SUNNY      9  -7  47 N10       30.45S WCI  -5
$$

WIZ003>005-009-010-017-018-262200-
NORTH CENTRAL WISCONSIN

CITY           SKY/WX    TMP DP  RH WIND       PRES   REMARKS
MANITOWISH WTR MOSUNNY    6  -9  52 NW7       30.25S WCI  -6
ARBOR VITAE    SUNNY      9  -6  50 NW12      30.24S WCI  -6
WOODRUFF       SUNNY      9  -6  50 NW12      30.24S WCI  -6
RHINELANDER    MOSUNNY    8  -9  45 NW13      30.24R WCI  -8
EAGLE RIVER    MOSUNNY    7 -10  44 NW8G16    30.22S WCI  -5
LAND O LAKES   FAIR       7  -9  48 NW10      30.24R WCI  -8
PHILLIPS       MOSUNNY    8  -8  48 N9        30.26F WCI  -6
TOMAHAWK       SUNNY      9  -9  44 CALM      30.26S
MEDFORD        MOSUNNY    8  -6  51 N7        30.27S WCI  -3
MERRILL        MOSUNNY   11  -8  42 NW3       30.26S
$$

WIZ029-030-035-036-043>047-262200-
CENTRAL WISCONSIN

CITY           SKY/WX    TMP DP  RH WIND       PRES   REMARKS
WAUSAU         SUNNY     10  -8  44 NW10      30.26F WCI  -4
MOSINEE        MOSUNNY   10  -6  48 NW10      30.28S WCI  -3
MARSHFIELD     PTSUNNY    9  -4  55 NW13      30.30S WCI  -7
STEVENS POINT  SUNNY      9  -9  44 NW10      30.29S WCI  -5
WAUPACA        SUNNY     16  -6  37 NW12      30.31S WCI   3
WAUTOMA        PTSUNNY   12  -5  46 N13       30.32S WCI  -3
WISC RAPIDS    SUNNY      9  -8  46 NW12      30.32F WCI  -6
CAMP DOUGLAS   MOSUNNY   14  -6  41 NW9       30.32S WCI   2
$$

WIZ011>013-019>022-031-037>040-048>050-262200-
NORTHEAST WISCONSIN

CITY           SKY/WX    TMP DP  RH WIND       PRES   REMARKS
ANTIGO         SUNNY      8  -8  47 N8        30.23F WCI  -4
SHAWANO        SUNNY     15  -8  34 N5        30.29S WCI   8
OCONTO         MOSUNNY   12  -5  46 NW3       30.31S
STURGEON BAY   SUNNY      9  -6  52 NW5       30.32S WCI   0
GREEN BAY      MOSUNNY   13  -4  46 N5        30.31S WCI   5
MANITOWOC      SUNNY     11  -3  53 N10       30.33R WCI  -3
APPLETON       PTSUNNY   12  -6  44 N7        30.30R WCI   2
CLINTONVILLE   SUNNY     14  -8  37 NW9       30.30S WCI   2
OSHKOSH        PTSUNNY   12  -4  48 N6        30.31R WCI   3
$$

WIZ032>034-041-042-053>061-262200-
SOUTHWEST WISCONSIN

CITY           SKY/WX    TMP DP  RH WIND       PRES   REMARKS
LA CROSSE      CLOUDY    13  -2  51 NW13      30.39S WCI  -2
SPARTA         PTSUNNY   11  -4  49 NW12      30.36R WCI  -3
VIROQUA        PTSUNNY   11  -5  50 NW12      30.31R WCI  -4
BOSCOBEL       SUNNY     15  -5  40 N13       30.36S WCI   1
PRAIRIE DU CHI MOSUNNY   12  -5  46 NW8       30.37S WCI   1
PLATTEVILLE    SUNNY     12  -5  46 NW9       30.31R WCI   0
$$

WIZ056-057-062-063-064-067-068-262200-
SOUTH CENTRAL WISCONSIN

CITY           SKY/WX    TMP DP  RH WIND       PRES   REMARKS
REEDSBURG      PTSUNNY   11  -5  49 NW7       30.32R WCI   0
BARABOO/DELLS  PTSUNNY   12  -7  43 NW9       30.30S WCI  -1
LONE ROCK      MOSUNNY   14  -5  42 MISG      30.34S
MINERAL POINT  SUNNY     14  -6  41 NW9       30.29R WCI   2
MADISON        PTSUNNY   13  -5  44 NW12      30.30S WCI  -1
MIDDLETON      SUNNY     15  -6  39 N8        30.31S WCI   4
WATERTOWN      SUNNY     12  -3  52 NW13G18   30.30R WCI  -3
MONROE         SUNNY     12  -2  52 N10       30.28R WCI  -1
JANESVILLE     SUNNY     16  -2  45 N9        30.30R WCI   4
$$

WIZ051-052-058>065-066-070>072-262200-
SOUTHEAST WISCONSIN

CITY           SKY/WX    TMP DP  RH WIND       PRES   REMARKS
MILWAUKEE      MOSUNNY   15  -5  40 N9        30.28R WCI   3
WAUKESHA       SUNNY     10  -6  48 N12       30.28R WCI  -4
MILWAUKEE/TIMM SUNNY     14  -8  37 N9        30.29R WCI   2
RACINE         MOSUNNY   15   1  53 N15       30.29R WCI   0
BURLINGTON     SUNNY     12  -7  42 N10       30.29R WCI  -1
KENOSHA        SUNNY     15  -2  46 NW10      30.27R WCI   2
FOND DU LAC    CLOUDY    10  -3  55 NE14      30.32R WCI  -6
SHEBOYGAN      SUNNY     11  -5  48 NW12      30.30R WCI  -3
WEST BEND      SUNNY     12  -4  48 N9        30.28S WCI   0
JUNEAU         MOSUNNY   10  -5  50 NW10      30.31R WCI  -3
$$

LSZ147-162-262200-
LAKE SUPERIOR

STATION/POSITION TIME  TEMP    WIND        PRES    WAVE
                       AIR SEA DIR/SP/G            HT/PER
                 (UTC) (F)     (DEG/KT/KT) (MB)    (FT/S)
DEVILS ISLAND    2100    7     240/ 12/ 15 1030.2F
PORT WING        2000    7     270/  7/ 12 1029.8F
SAXON HARBOR     2000    7     320/  4/  7 1029.1F
$$

LMZ867-665-643>646-262200-
LAKE MICHIGAN

STATION/POSITION TIME  TEMP    WIND        PRES    WAVE
                       AIR SEA DIR/SP/G            HT/PER
                 (UTC) (F)     (DEG/KT/KT) (MB)    (FT/S)
NORTHPORT PIER   2021    9     340/  5/  9 1026.4S
KEWAUNEE LAKESHO 2000    9     360/  7/ 14 1025.5F
SHEBOYGAN LAKESH 2100   10     350/ 11/ 13 1028.3R
PORT WASHINGTON  2000   13     350/  4/ 12 1026.8
MILWAUKEE LAKESH 2100   14      10/ 13/ 18   N/A
KENOSHA   LAKESH 2100   15     330/ 11/ 14 1025.4R
$$

TC  - TEMPERATURE IN CELSIUS
VSB - VISIBILITY IN STATUTE MILES
WCI - WIND CHILL INDEX
HX  - HEAT INDEX




USA.gov is the U.S. government's official web portal to all federal, state and local government web resources and services.